Terminal Aerodrome Forecast
Issued by NWS

Home | Current Version | Previous Version | Text Only | Print | Product List | Glossary On
Versions: 1 2 3 4 5 6 7 8 9 10 11 12 13 14 15 16
000
FTAK31 PAJN 231100
TAFAWG
TAF
PAWG 231123Z 2312/2412 13007KT P6SM SCT025 BKN045 OVC060
     FM231800 VRB04KT P6SM VCSH SCT030 OVC045
     FM232100 31006KT P6SM VCSH SCT035 BKN045
     FM240400 14005KT P6SM SCT040
      AMD LTD TO CLD VIS AND WIND 2312/2315=

USA.gov is the U.S. government's official web portal to all federal, state and local government web resources and services.